COSMOS 252 DEB, 3551

Orbit data source: Space-Track

COSMOS 252 DEB, 3551 is space debris in LEO originally from a launch on Fri, 01 Nov 1968 UTC launched from the Tyuratam Missile And Space Complex (TTMTR). Debris objects in space refer to the collection of defunct objects orbiting the Earth. Examples of debris include non-operational satellites, rocket bodies, and fragments generated from explosions, collisions, or faulty payload assembly.

Loading next visibility...
Identifier
3551, 1968-097D
Orbit
LEO
Country
Flag of CISCIS
Related business
Manufacturer
Unknown
Mission
Spacecraft
Bus & Motor
Unknown
Mass
Unknown
Launch date (UTC)
1968-11-01 (57 years ago)
Launch vehicle
Unknown
Launch site
Tyuratam Missile And Space Complex (TTMTR)
Object type
Payload
Rocket body
Debris
Shape & HBR
Unknown shape, 0.1 m
Radar Cross Section
Small (<0.1 m²)

Expand to show TLE details & history
Last TLE update: 13 hours ago

TLE from 13 hours ago
0 COSMOS 252 DEB
1 03551U 68097D   25352.46892468  .00002499  00000-0  54163-3 0  9994
2 03551  62.2812 255.6396 0628583 104.4650 262.6946 13.80327980783593
Epoch: 2025-12-18T11:15Z
TLE epoch observation values (Epoch: 2025-12-18T11:15:15.092Z)
Latitude
-0.00002°
Longitude
-0.49728°
Altitude
1,051.246 km
Speed
7.283 km/s
True Right ascension
17h 02m 33s
True Declination
0° 00' 00"
Sunlit
Object was in daylight at epoch
Visualization orbit readout
Latitude
Unknown
Longitude
Unknown
Altitude
Unknown
Speed
Unknown
Apparent Right ascension
Unknown
Apparent Declination
Unknown
Sunlit
N/A
Visualization observer readout
Local Sidereal Time
23:26:03
Azimuth
Unknown
Elevation
Unknown
Doppler factor
Unknown
Orbital elements
Apogee altitude
1,423.037 km
Perigee altitude
500.301 km
Semi-major axis
7,339.806 km
Eccentricity
0.06286
Inclination
62.2812°
RAAN
255.6396°
Arg. of periapsis
104.465°
True anomaly
255.6386°
Mean anomaly
262.6946°
Eccentric anomaly
259.15738°
Mean motion
3.45157 °/min
Orbital period
104.3 mins
BSTAR
0.00054163
Loading maneuver chart data...
Computing Atmospheric mass density...

Documentation

Showing up to 5 results
|